Location: Dobrzeń Wielki
(50.7693°N, 17.8414°E)
Time: 07:17:05
(UTC+01:00)

ISS - Pass Details

Date: 24 January 2019
Orbit: 403 x 411 km, 51.6° (Epoch: 17 February)

Event Time Altitude Azimuth Distance (km) Brightness Sun altitude
Rises 17:43:45 0° 201° (SSW) 2,323 0.6 -12.1°
Reaches altitude 10° 17:46:24 10° 178° (S) 1,469 -0.8 -12.5°
Maximum altitude 17:48:27 16° 140° (SE) 1,184 -1.7 -12.8°
Enters shadow 17:49:18 14° 122° (ESE) 1,241 -1.8 -13.0°
